Location: Bonny Doon Airfield
(37.0704°N, 122.1252°W)
Time: 14:43:09
(UTC-07:00)

Envisat - Pass Details

Date: 10 October 2017
Orbit: 764 x 766 km, 98.2° (Epoch: 20 October)

Event Time Altitude Azimuth Distance (km) Brightness Sun altitude
Exits shadow 19:47:54 17° 60° (ENE) 1,850 4.5 -14.7°
Drops below altitude 10° 19:50:50 10° 25° (NNE) 2,306 5.3 -15.3°
Sets 19:53:51 0° 6° (N) 3,237 6.2 -15.9°
